Regional Weather Roundup
Issued by NWS

Home | Current Version | Previous Version | Text Only | Print | Product List | Glossary Off
Versions: 1 2 3 4 5 6 7 8 9 10 11 12 13 14 15 16 17 18 19 20 21 22 23 24 25 26 27 28 29 30 31 32 33 34 35 36 37 38 39 40 41 42 43 44 45 46 47 48 49 50

000
ASUS43 KDTX 261910
RWRMI
MICHIGAN HOURLY REGIONAL WEATHER ROUNDUP
NATIONAL WEATHER SERVICE DETROIT/PONTIAC MI
300 PM EDT THU APR 26 2018

NOTE: "FAIR" INDICATES FEW OR NO CLOUDS BELOW 12,000 FEET WITH NO
SIGNIFICANT WEATHER AND/OR OBSTRUCTION TO VISIBILITY.

MIZ047>049-052>055-059>063-066>070-074>076-081>083-262000-
SOUTHEAST LOWER MICHIGAN

CITY           SKY/WX    TMP DP  RH WIND       PRES   REMARKS
ADRIAN         FAIR      57  35  43 W6        29.92F
ALMA           FAIR      62  29  29 W13G18    29.89F
ANN ARBOR      FAIR      60  38  43 MISG      29.90F
BAD AXE        FAIR      57  25  28 SW3       29.90S
CARO           FAIR      59  23  25 SW6       29.88F
DETROIT CITY   FAIR      59  37  44 S10G17    29.90F
DETROIT        FAIR      61  34  36 W8        29.91F
FLINT          FAIR      60  25  26 NW7       29.89F
GROSSE ILE     FAIR      52  40  64 S10       29.92F
HILLSDALE      FAIR      57  34  41 S5        29.91S
HOWELL         FAIR      59  24  26 W5        29.89F

CITY           SKY/WX    TMP DP  RH WIND       PRES   REMARKS
JACKSON        FAIR      61  32  33 SW10      29.90F
LAMBERTVILLE   FAIR      61  34  36 W6        29.91F
LANSING        FAIR      62  27  26 W9        29.90F
LAPEER         FAIR      58  26  28 W8        29.89F
MASON          FAIR      62  20  20 W8        29.90F
MONROE         FAIR      57  40  52 S7        29.91F
MT. CLEMENS    MOSUNNY   57  34  41 S6        29.90F
PONTIAC        PTSUNNY   59  32  36 NW7       29.88F
PORT HOPE        N/A     43  34  70 E6        29.89S
PORT HURON     FAIR      59  30  33 W3        29.89F
TRI CITIES     FAIR      59  27  29 CALM      29.89F
MIDLAND        FAIR      60  29  31 W5        29.87F
TROY           FAIR      61  28  28 SW8       29.91S
SAGINAW HB     FAIR      59  27  29 SW6       29.89S
$$
MIZ043>046-050>051-056>058-064>065-071>073-077>080-262000-
SOUTHWEST LOWER MICHIGAN

CITY           SKY/WX    TMP DP  RH WIND       PRES   REMARKS
BATTLE CREEK   FAIR      61  30  31 W8        29.90F
BENTON HARBOR  FAIR      51  34  52 W9        29.94F
BIG RAPIDS     FAIR      60  19  20 W3        29.87F
COLDWATER      FAIR      60  29  30 SW3       29.91F
FREMONT        FAIR      59  14  17 NW14      29.90S
HOLLAND        FAIR      56  32  40 W14       29.94S
GRAND RAPIDS   PTSUNNY   61  29  29 SW7       29.90F
IONIA          FAIR      62  29  28 SW8       29.89S
KALAMAZOO      FAIR      62  28  27 MISG      29.91F
LUDINGTON      FAIR      51  32  47 SW10      29.90F
MARSHALL       FAIR      60  26  27 CALM      29.89F
MOUNT PLEASANT FAIR      63  29  28 W8        29.87F
MUSKEGON       PTSUNNY   54  29  38 SW13      29.94S
SOUTH HAVEN    FAIR      51  33  50 W9        29.94S
$$
MIZ016>042-262000-
NORTHERN LOWER MICHIGAN

CITY           SKY/WX    TMP DP  RH WIND       PRES   REMARKS
ALPENA         FAIR      58  22  24 W8        29.85F
BEAVER ISLAND  FAIR      55  31  39 SW12G18   29.83F
BELLAIRE       FAIR      59  25  27 W9G16     29.87F
CADILLAC       FAIR      59  25  27 SW9       29.86S
CHARLEVOIX     FAIR      56  29  34 SW12G17   29.89S
FRANKFORT      FAIR      52  32  46 SW8G18    29.88F
GAYLORD        FAIR      51  23  33 W10       29.85F
GRAYLING       FAIR      60  23  24 W10G16    29.84F
HARBOR SPRINGS FAIR      47  30  50 SW6       29.86F
HOUGHTON LAKE  FAIR      58  26  29 SW6       29.86F
MANISTEE       FAIR      59  30  33 W12G18    29.88F
OSCODA         FAIR      54  29  38 S8G16     29.87S
PELLSTON       FAIR      57  25  29 SW15G22   29.85F
ROGERS CITY    FAIR      42  29  60 N6        29.87S
TRAVERSE CITY  PTSUNNY   61  28  28 VRB6      29.85F
$$
MIZ007>008-015-262000-
EASTERN UPPER MICHIGAN

CITY           SKY/WX    TMP DP  RH WIND       PRES   REMARKS
KINROSS        FAIR      52  26  36 SW10G18   29.82F
MACKINAC ISLAN FAIR      48  30  48 W8G21     29.84F
NEWBERRY       FAIR      49  33  55 S8        29.81S
MUNISING         N/A     61  29  29 S6        29.76F
$$
MIZ004>006-011>014-085-262000-
CENTRAL UPPER MICHIGAN

CITY           SKY/WX    TMP DP  RH WIND       PRES   REMARKS
MANISTIQUE     FAIR      42  36  78 S14G22    29.83S
ESCANABA       FAIR      52  34  50 S15       29.79F
MENOMINEE      FAIR      61  33  35 S12       29.80F
SAWYER-GWINN   SUNNY     61  21  21 W10       29.76F
$$
MIZ001>003-009>011-084-262000-
WESTERN UPPER MICHIGAN

CITY           SKY/WX    TMP DP  RH WIND       PRES   REMARKS
IRON MOUNTAIN  FAIR      64  27  24 W13       29.76F
HOUGHTON       FAIR      46  29  51 NW17      29.78R
COPPER HARBOR    N/A     46  30  53 N13       29.78R
IRONWOOD       FAIR      52  33  48 N13       29.83R
$$

ABBREVIATIONS USED IN REMARKS
   TC - TEMPERATURE IN CELSIUS
  WCI - WIND CHILL INDEX
   HX - HEAT INDEX
  VSB - VISIBILITY





USA.gov is the U.S. government's official web portal to all federal, state and local government web resources and services.